• Join FlightAware (Why Join?)
  • Login
  • US Flag 
08:05AM EDT


 

Airport Tracker/Info


-or-


 

Live Flight TrackerFlight Track Log ✈ N10948 ✈ 12-Jul-2013 ✈ KMZH - 21D

Flight Track Log - Related Links

Times and Time Zones

All times are in EDT time to prevent confusion due to time zone crossing. See the N10948 flight status page for this flight to view local times or setup timezone preferences in your user account.

Time Position Orientation Groundspeed Altitude Reporting Facility
EDT Latitude Longitude Course Direction KTS MPH feet Rate Location/Type
04:10PM 46.3697 -92.8078 185° South 72 83 6,000  Level Minneapolis Center
04:11PM 46.3478 -92.8108 185° South 80 92 4,100 -540 Descending Minneapolis Center
04:12PM 46.3272 -92.8114 181° South 78 90 5,000 780 Climbing Minneapolis Center
04:13PM 46.3078 -92.8100 177° South 74 85 5,800 480 Climbing Minneapolis Center
04:14PM 46.2831 -92.8094 179° South 79 91 6,100 60 Climbing Minneapolis Center
04:15PM 46.2519 -92.8017 170° South 96 110 6,000 -60 Descending Minneapolis Center
04:16PM 46.2133 -92.7972 175° South 109 125 6,000  Level Minneapolis Center
04:18PM 46.1733 -92.7894 172° South 108 124 6,000  Level Minneapolis Center
04:19PM 46.1450 -92.8019 197° South 106 122 6,100  Climbing Minneapolis Center
04:20PM 46.1150 -92.8139 195° South 108 124 6,100  Level Minneapolis Center
04:21PM 46.0858 -92.8183 186° South 107 123 6,100  Level Minneapolis Center
04:22PM 46.0483 -92.8153 177° South 110 127 6,100 -60 Level Minneapolis Center
04:23PM 46.0172 -92.8167 182° South 110 127 6,000 -120 Descending Minneapolis Center
04:24PM 45.9858 -92.8175 181° South 112 129 5,900  Descending Minneapolis Center
04:25PM 45.9564 -92.8142 175° South 110 127 6,000 60 Climbing Minneapolis Center
04:26PM 45.9247 -92.8122 178° South 111 128 6,100  Climbing Minneapolis Center
04:27PM 45.8953 -92.8203 191° South 110 127 6,100 -60 Level Minneapolis Center
04:28PM 45.8581 -92.8214 181° South 110 127 6,000  Descending Minneapolis Center
04:29PM 45.8297 -92.8208 179° South 106 122 6,100  Climbing Minneapolis Center
04:30PM 45.7978 -92.8231 183° South 114 131 6,000  Descending Minneapolis Center
04:31PM 45.7667 -92.8250 182° South 113 130 6,100  Climbing Minneapolis Center
04:32PM 45.7367 -92.8261 181° South 109 125 6,100 -60 Level Minneapolis Center
04:33PM 45.7069 -92.8258 180° South 106 122 6,000  Descending Minneapolis Center
04:34PM 45.6725 -92.8264 181° South 104 120 6,100  Climbing Minneapolis Center
04:35PM 45.6422 -92.8303 185° South 108 124 6,100  Level Minneapolis Center
04:36PM 45.6114 -92.8303 180° South 110 127 6,100  Level Minneapolis Center
04:37PM 45.5806 -92.8328 183° South 110 127 6,100 -60 Level Minneapolis Center
04:38PM 45.5486 -92.8325 180° South 113 130 6,000 -60 Descending Minneapolis Center
04:39PM 45.5175 -92.8333 181° South 112 129 6,000  Level Minneapolis Center
04:40PM 45.4819 -92.8336 180° South 108 124 6,000 -120 Level Minneapolis Center
04:41PM 45.4506 -92.8361 183° South 110 127 5,800 -360 Descending Minneapolis Center
04:42PM 45.4203 -92.8367 181° South 109 125 5,300 -420 Descending Minneapolis Center
04:43PM 45.3906 -92.8392 183° South 108 124 5,000 -360 Descending Minneapolis Center
04:44PM 45.3606 -92.8417 183° South 108 124 4,600 -480 Descending Minneapolis Center
04:45PM 45.3322 -92.8419 180° South 102 117 4,100 -300 Descending Minneapolis Center
04:47PM 45.2967 -92.8439 182° South 105 121 4,000 -120 Descending Minneapolis Center
04:48PM 45.2667 -92.8456 182° South 106 122 3,900 -120 Descending Minneapolis Center
04:49PM 45.2386 -92.8467 182° South 101 116 3,800 -480 Descending Minneapolis Center
04:50PM 45.2089 -92.8478 182° South 107 123 3,000 -420 Descending Minneapolis Center
04:51PM 45.1789 -92.8481 180° South 107 123 3,000  Level Minneapolis Center
04:52PM 45.1450 -92.8517 184° South 108 124 3,000  Level Minneapolis Center